Location: Unspecified
(43.4680°N, 87.1740°E)
Time: 21:42:01
(UTC+00:00)

Cosmos 1782 Rocket - Pass Details

Date: 17 April 2021
Orbit: 608 x 631 km, 82.5° (Epoch: 12 May)

Event Time Altitude Azimuth Distance (km) Brightness Sun altitude
Rises 21:42:25 0° 343° (NNW) 2,930 7.3 -17.5°
Reaches altitude 10° 21:44:47 10° 335° (NNW) 2,019 6.3 -17.2°
Maximum altitude 21:48:52 36° 269° (W) 1,007 4.2 -16.5°
Enters shadow 21:50:04 30° 236° (SW) 1,128 4.3 -16.4°
